User: anonymous   Login
Location: Holyhead Bay
(53.3667°N, 4.6667°W)
Time: 05:49:21
(UTC+00:00)
Language:

Cosmos 1766 Rocket - Orbit

View from above orbital plane
View from above orbital plane
View from above satellite
View from above satellite

Ground track
Ground track

The orbit data is extracted from the following two-line orbital elements,

1 16882U 86055B   21055.84296462  .00000106  00000-0  10050-4 0  9990
2 16882  82.5195  50.8752 0018307 283.0553 153.2925 14.83257098846674
Epoch (UTC): 24 February 2021 20:13:52
Eccentricity: 0.0018307
inclination: 82.5195°
perigee height: 606 km
apogee height: 632 km
right ascension of ascending node: 50.8752°
argument of perigee: 283.0553°
revolutions per day: 14.83257098
mean anomaly at epoch: 153.2925°
orbit number at epoch: 84667

The dashed part of the orbit path shows where the satellite is in the earth's shadow,  

DLR